| time (UTC) | temp F | wind direction | speed MPH | gust MPH | rain 1hr in | rain 24hr in | rain mn in | humidity % | barometer mb |
| 20260901034532 | 55 | 216 | 0.0 | 0.0 | 0.00 | 0.01 | 0.00 | 78 | 1010.8 |
| 20260901033024 | 54 | 258 | 0.0 | 0.0 | 0.00 | 0.01 | 0.00 | 79 | 1010.9 |
| 20260901031541 | 54 | 262 | 0.0 | 0.0 | 0.00 | 0.01 | 0.00 | 81 | 1011.0 |
| 20260901030023 | 53 | 264 | 0.0 | 0.0 | 0.00 | 0.01 | 0.00 | 82 | 1010.9 |
| 20260901024523 | 54 | 250 | 0.0 | 0.0 | 0.00 | 0.01 | 0.00 | 79 | 1010.6 |
| 20260901023012 | 55 | 250 | 0.0 | 0.0 | 0.00 | 0.01 | 0.00 | 76 | 1010.3 |
| 20260901021507 | 57 | 251 | 0.0 | 0.0 | 0.00 | 0.01 | 0.01 | 73 | 1009.9 |
| 20260901020006 | 60 | 241 | 0.0 | 0.0 | 0.00 | 0.01 | 0.01 | 66 | 1009.6 |
| 20260901014505 | 64 | 243 | 0.0 | 0.0 | 0.00 | 0.01 | 0.01 | 57 | 1009.4 |
| 20260901013004 | 66 | 245 | 0.0 | 0.0 | 0.00 | 0.01 | 0.01 | 52 | 1009.2 |
| 20260901011504 | 71 | 247 | 0.0 | 0.0 | 0.00 | 0.03 | 0.01 | 45 | 1009.0 |
| 20260901010002 | 73 | 251 | 0.0 | 0.0 | 0.00 | 0.03 | 0.01 | 42 | 1008.8 |
| 20260901004601 | 75 | 259 | 0.0 | 0.0 | 0.00 | 0.03 | 0.01 | 40 | 1008.8 |
| 20260901003105 | 76 | 253 | 0.0 | 0.0 | 0.00 | 0.03 | 0.01 | 39 | 1008.7 |
| 20260901001603 | 77 | 283 | 0.0 | 1.0 | 0.00 | 0.36 | 0.01 | 38 | 1008.6 |
| 20260901000103 | 78 | 266 | 0.0 | 1.0 | 0.00 | 0.36 | 0.01 | 36 | 1008.6 |
| 20260831234601 | 78 | 244 | 0.0 | 3.0 | 0.00 | 0.36 | 0.01 | 36 | 1008.6 |
| 20260831233155 | 78 | 276 | 0.0 | 1.0 | 0.00 | 0.36 | 0.01 | 36 | 1008.4 |
| 20260831231557 | 78 | 260 | 0.0 | 1.0 | 0.00 | 0.36 | 0.01 | 38 | 1008.2 |
| 20260831230123 | 79 | 285 | 0.0 | 1.0 | 0.00 | 0.36 | 0.01 | 38 | 1008.2 |
| 20260831224552 | 79 | 270 | 0.0 | 1.0 | 0.00 | 0.36 | 0.01 | 35 | 1008.1 |
| 20260831223051 | 79 | 269 | 0.0 | 1.0 | 0.00 | 0.36 | 0.01 | 39 | 1008.0 |
| 20260831221603 | 79 | 250 | 0.0 | 1.0 | 0.00 | 0.36 | 0.01 | 37 | 1008.0 |
| 20260831220048 | 79 | 262 | 0.0 | 1.0 | 0.00 | 0.36 | 0.01 | 37 | 1007.8 |
| 20260831214548 | 79 | 248 | 0.0 | 1.0 | 0.00 | 0.36 | 0.01 | 38 | 1007.8 |
| 20260831213052 | 78 | 247 | 0.0 | 1.0 | 0.00 | 0.36 | 0.01 | 37 | 1007.9 |
| 20260831211515 | 78 | 266 | 0.0 | 2.0 | 0.00 | 0.36 | 0.01 | 37 | 1008.0 |
| 20260831210013 | 78 | 264 | 0.0 | 1.0 | 0.00 | 0.36 | 0.01 | 38 | 1008.1 |
| 20260831204510 | 78 | 259 | 0.0 | 1.0 | 0.00 | 0.36 | 0.01 | 38 | 1008.0 |
| 20260831203009 | 78 | 228 | 0.0 | 1.0 | 0.00 | 0.36 | 0.01 | 38 | 1008.0 |
| 20260831201509 | 78 | 262 | 0.0 | 9.0 | 0.00 | 0.36 | 0.01 | 36 | 1008.0 |
| 20260831200007 | 78 | 240 | 0.0 | 1.0 | 0.00 | 0.36 | 0.01 | 38 | 1008.2 |
| 20260831194510 | 77 | 205 | 0.0 | 1.0 | 0.00 | 0.36 | 0.01 | 35 | 1008.0 |
| 20260831193002 | 77 | 229 | 0.0 | 6.0 | 0.00 | 0.36 | 0.01 | 36 | 1008.3 |
| 20260831191600 | 76 | 239 | 0.0 | 1.0 | 0.00 | 0.36 | 0.01 | 37 | 1008.4 |
| 20260831190108 | 76 | 253 | 0.0 | 1.0 | 0.00 | 0.36 | 0.01 | 38 | 1008.4 |
| 20260831184607 | 76 | 247 | 0.0 | 2.0 | 0.00 | 0.36 | 0.01 | 39 | 1008.5 |
| 20260831183055 | 75 | 244 | 0.0 | 4.0 | 0.00 | 0.36 | 0.01 | 37 | 1008.6 |
| 20260831181552 | 75 | 254 | 0.0 | 3.0 | 0.00 | 0.36 | 0.01 | 39 | 1008.7 |
| 20260831180050 | 74 | 290 | 0.0 | 1.0 | 0.00 | 0.36 | 0.01 | 39 | 1008.8 |
| 20260831174551 | 73 | 248 | 0.0 | 1.0 | 0.00 | 0.36 | 0.01 | 42 | 1008.8 |
| 20260831173045 | 73 | 219 | 0.0 | 1.0 | 0.00 | 0.36 | 0.01 | 41 | 1008.8 |
| 20260831171544 | 72 | 255 | 0.0 | 0.0 | 0.00 | 0.36 | 0.01 | 44 | 1008.9 |
| 20260831170106 | 71 | 226 | 0.0 | 1.0 | 0.00 | 0.36 | 0.01 | 47 | 1008.9 |
| 20260831164535 | 71 | 240 | 0.0 | 1.0 | 0.00 | 0.36 | 0.01 | 49 | 1009.1 |
| 20260831163036 | 70 | 248 | 0.0 | 1.0 | 0.00 | 0.36 | 0.01 | 53 | 1009.1 |
| 20260831161528 | 69 | 198 | 0.0 | 1.0 | 0.00 | 0.36 | 0.01 | 54 | 1009.1 |
| 20260831160126 | 68 | 286 | 0.0 | 1.0 | 0.00 | 0.36 | 0.01 | 54 | 1009.4 |
| 20260831154521 | 68 | 212 | 0.0 | 1.0 | 0.00 | 0.36 | 0.01 | 57 | 1009.4 |
| 20260831153016 | 67 | 245 | 0.0 | 0.0 | 0.00 | 0.36 | 0.01 | 62 | 1009.2 |
| 20260831151512 | 65 | 252 | 0.0 | 0.0 | 0.00 | 0.36 | 0.01 | 64 | 1009.5 |
| 20260831150010 | 65 | 232 | 0.0 | 1.0 | 0.00 | 0.36 | 0.01 | 67 | 1009.6 |
| 20260831144520 | 63 | 203 | 0.0 | 0.0 | 0.00 | 0.36 | 0.01 | 75 | 1009.3 |
| 20260831143100 | 61 | 238 | 0.0 | 0.0 | 0.00 | 0.36 | 0.01 | 77 | 1009.2 |
| 20260831141600 | 60 | 203 | 0.0 | 0.0 | 0.00 | 0.36 | 0.01 | 81 | 1009.3 |
| 20260831140058 | 58 | 254 | 0.0 | 0.0 | 0.00 | 0.36 | 0.01 | 84 | 1009.2 |
| 20260831134558 | 57 | 221 | 0.0 | 0.0 | 0.00 | 0.36 | 0.01 | 86 | 1009.3 |
| 20260831133056 | 55 | 255 | 0.0 | 0.0 | 0.00 | 0.36 | 0.01 | 88 | 1009.3 |
| 20260831131552 | 54 | 217 | 0.0 | 0.0 | 0.00 | 0.36 | 0.01 | 90 | 1008.9 |
| 20260831130051 | 53 | 279 | 0.0 | 0.0 | 0.00 | 0.36 | 0.01 | 90 | 1008.8 |
| 20260831124548 | 0 | 0.0 | 0.0 | 0.00 | 0.36 | 0.01 | 1008.4 | ||
| 20260831123038 | 0 | 0.0 | 0.0 | 0.00 | 0.36 | 0.01 | 1008.3 | ||
| 20260831121535 | 0 | 0.0 | 0.0 | 0.00 | 0.36 | 0.01 | 1008.3 | ||
| 20260831120032 | 0 | 0.0 | 0.0 | 0.00 | 0.36 | 0.01 | 1008.1 | ||
| 20260831114525 | 0 | 0.0 | 0.0 | 0.00 | 0.36 | 0.01 | 1008.1 | ||
| 20260831113019 | 0 | 0.0 | 0.0 | 0.00 | 0.36 | 0.01 | 1008.1 | ||
| 20260831111526 | 0 | 0.0 | 0.0 | 0.00 | 0.36 | 0.01 | 1008.0 | ||
| 20260831110010 | 0 | 0.0 | 0.0 | 0.00 | 0.36 | 0.01 | 1008.0 | ||
| 20260831104506 | 0 | 0.0 | 0.0 | 0.00 | 0.36 | 0.01 | 1007.9 | ||
| 20260831103108 | 0 | 0.0 | 0.0 | 0.00 | 0.36 | 0.01 | 1007.8 | ||
| 20260831101559 | 0 | 0.0 | 0.0 | 0.00 | 0.36 | 0.01 | 1007.8 | ||
| 20260831100050 | 0 | 0.0 | 0.0 | 0.00 | 0.36 | 0.01 | 1007.3 | ||
| 20260831094546 | 0 | 0.0 | 0.0 | 0.00 | 0.36 | 0.01 | 1007.2 | ||
| 20260831093038 | 0 | 0.0 | 0.0 | 0.00 | 0.36 | 0.01 | 1007.3 | ||
| 20260831091535 | 0 | 0.0 | 0.0 | 0.00 | 0.36 | 0.01 | 1007.3 | ||
| 20260831090030 | 0 | 0.0 | 0.0 | 0.00 | 0.36 | 0.01 | 1007.4 | ||
| 20260831084524 | 0 | 0.0 | 0.0 | 0.00 | 0.36 | 0.01 | 1007.3 | ||
| 20260831083024 | 47 | 247 | 0.0 | 0.0 | 0.00 | 0.36 | 0.01 | 96 | 1007.3 |
| 20260831081517 | 48 | 252 | 0.0 | 0.0 | 0.01 | 0.41 | 0.01 | 95 | 1007.1 |
| 20260831080040 | 49 | 255 | 0.0 | 0.0 | 0.01 | 0.41 | 0.01 | 96 | 1007.1 |
| 20260831074515 | 49 | 259 | 0.0 | 0.0 | 0.01 | 0.41 | 0.01 | 97 | 1007.1 |
| 20260831073043 | 48 | 242 | 0.0 | 0.0 | 0.01 | 0.41 | 0.01 | 96 | 1006.7 |
| 20260831071542 | 48 | 277 | 0.0 | 0.0 | 0.00 | 0.40 | 0.00 | 95 | 1006.6 |
| 20260831070039 | 48 | 277 | 0.0 | 0.0 | 0.00 | 0.40 | 0.00 | 94 | 1006.7 |
| 20260831064535 | 50 | 226 | 0.0 | 0.0 | 0.00 | 0.40 | 0.00 | 93 | 1006.5 |
| 20260831063034 | 51 | 222 | 0.0 | 0.0 | 0.00 | 0.40 | 0.00 | 94 | 1006.6 |
| 20260831061533 | 51 | 239 | 0.0 | 0.0 | 0.00 | 0.40 | 0.00 | 93 | 1006.5 |
| 20260831060030 | 51 | 229 | 0.0 | 0.0 | 0.00 | 0.40 | 0.00 | 94 | 1006.9 |
| 20260831054529 | 50 | 212 | 0.0 | 0.0 | 0.00 | 0.40 | 0.00 | 94 | 1006.7 |
| 20260831053027 | 51 | 233 | 0.0 | 0.0 | 0.00 | 0.40 | 0.00 | 93 | 1006.4 |
| 20260831051526 | 53 | 234 | 0.0 | 0.0 | 0.00 | 0.40 | 0.00 | 91 | 1006.3 |
| 20260831050019 | 54 | 276 | 0.0 | 0.0 | 0.00 | 0.40 | 0.00 | 92 | 1006.4 |
| 20260831044517 | 53 | 264 | 0.0 | 0.0 | 0.00 | 0.40 | 0.00 | 93 | 1006.4 |
| 20260831043016 | 54 | 261 | 0.0 | 0.0 | 0.00 | 0.40 | 0.00 | 93 | 1006.4 |
| 20260831041515 | 53 | 242 | 0.0 | 0.0 | 0.00 | 0.40 | 0.00 | 94 | 1006.2 |
| 20260831040009 | 54 | 242 | 0.0 | 0.0 | 0.00 | 0.40 | 0.00 | 92 | 1006.2 |